Hourly Data Report for October 04, 2019

All times are specified in Local Standard Time (LST). Add 1 hour to adjust for Daylight Saving Time where and when it is observed.

SEPT-ILES
QUEBEC
Current Station Operator: ECCC - MSC

50°13'00.000" N
66°15'00.000" W
52.60 m
7047914
71279
XZV

Download Data

Hourly Data (October 2019)
Hourly Data Report for October 4, 2019
TIME Temp Definition
°C
Dew Point Definition
°C
Rel Hum Definition
%
Wind Dir Definition
10's deg

Wind Spd Definition
km/h
Visibility Definition
km
Stn Press Definition
kPa
Hmdx Definition


Wind Chill Definition


Weather Definition


00:00 -1.0 -4.4 78 1 7   100.86   -4 LegendNANA
01:00 -0.6 -4.0 77 33 7   100.82   -3 LegendNANA
02:00 0.2 -3.9 74 33 8   100.78     LegendNANA
03:00 -0.3 -3.8 77 33 6   100.80   -2 LegendNANA
04:00 -1.0 -3.9 81 33 5   100.81   -3 LegendNANA
05:00 0.2 -3.6 76 35 6   100.79     LegendNANA
06:00 0.3 -3.4 76 1 5   100.80     LegendNANA
07:00 1.4 -2.5 75 31 7   100.82     LegendNANA
08:00 4.0 -2.1 64 30 7   100.82     LegendNANA
09:00 6.1 -2.1 55 30 9   100.81     LegendNANA
10:00 7.1 -2.6 50 28 9   100.77     LegendNANA
11:00 7.3 -2.2 51 14 5   100.75     LegendNANA
12:00 8.3 -2.2 48 30 11   100.72     LegendNANA
13:00 8.6 -2.4 46 32 8   100.71     LegendNANA
14:00 8.9 -3.7 41 31 17   100.72     LegendNANA
15:00 8.9 -4.2 39 31 13   100.73     LegendNANA
16:00 8.7 -3.6 42 31 11   100.76     LegendNANA
17:00 6.0 -2.9 53 30 6   100.80     LegendNANA
18:00 5.5 0.1 68 32 18   100.88     LegendNANA
19:00 3.9 0.5 78 32 12   100.98     LegendNANA
20:00 3.5 -0.5 75 34 8   101.05     LegendNANA
21:00 3.7 -1.0 71 31 12   101.10     LegendNANA
22:00 4.4 -2.1 63 33 14   101.15     LegendNANA
23:00 3.9 -3.0 61 34 13   101.17     LegendNANA

Notes on Data Quality.

Legend

  • E = Estimated
  • M = Missing
  • NA = Not Available
Date modified: